Location: Asheville, NC
(35.6000°N, 82.5500°W)
Time: 15:55:26
(UTC-05:00)

STARS - Pass Details

Date: 07 January 2018
Orbit: 625 x 641 km, 98.3° (Epoch: 19 January)

Event Time Altitude Azimuth Distance (km) Brightness Sun altitude
Rises 05:00:08 0° 138° (SE) 2,898 ? -31.9°
Reaches altitude 10° 05:02:35 10° 126° (SE) 1,994 ? -31.4°
Maximum altitude 05:06:10 26° 70° (ENE) 1,237 ? -30.7°
Enters shadow 05:07:37 22° 39° (NE) 1,387 ? -30.4°
